User: anonymous   Login
Location: Sperry Observatory
(40.6664°N, 74.3236°W)
Time: 01:30:38
(UTC-05:00)
Language:

UOSAT-12 - Orbit

View from above orbital plane
View from above orbital plane
View from above satellite
View from above satellite

Ground track
Ground track

The orbit data is extracted from the following two-line orbital elements,

1 25693U 99021A   15063.55035411  .00000836  00000-0  12635-3 0  9992
2 25693 064.5561 180.5691 0047293 253.9731 162.3734 14.80337741856451
Epoch (UTC): 04 March 2015 13:12:30
Eccentricity: 0.0047293
inclination: 64.5561°
perigee height: 595 km
apogee height: 661 km
right ascension of ascending node: 180.5691°
argument of perigee: 253.9731°
revolutions per day: 14.80337741
mean anomaly at epoch: 162.3734°
orbit number at epoch: 85645

The dashed part of the orbit path shows where the satellite is in the earth's shadow,  

DLR